Regional Weather Roundup
Issued by NWS

Home | Current Version | Previous Version | Text Only | Print | Product List | Glossary On
Versions: 1 2 3 4 5 6 7 8 9 10 11 12 13 14 15 16 17 18 19 20 21 22 23 24 25 26 27 28 29 30 31 32 33 34 35 36 37 38 39 40 41 42 43 44 45 46 47 48 49 50
000
ASUS45 KABQ 050401
RWRNM
NEW MEXICO REGIONAL WEATHER ROUNDUP
NATIONAL WEATHER SERVICE ALBUQUERQUE NM
900 PM MST SUN DEC 04 2016

NOTE: "FAIR" MEANS FEW OR NO CLOUDS BELOW 12,000 FEET AGL WITH NO
       SIGNIFICANT WEATHER OR OBSTRUCTIONS TO VISION.

      THIS PRODUCT IS RELEASED AS TWO VERSIONS.  ONE VERSION NEAR
      THE TOP OF THE HOUR CONTAINING PRELIMINARY DATA FROM ALBUQUERQUE
      AND OTHER STATIONS.  A FINAL VERSION WITH ADDITIONAL DATA IS
      ISSUED ABOUT 10 MINUTES AFTER THE HOUR.

NMZ501-503-504-510>518-050500-
NORTHWEST PLATEAU/NORTHCENTRAL MOUNTAINS

CITY           SKY/WX    TMP DP  RH WIND       PRES   REMARKS
FARMINGTON     FAIR      27  20  75 E7        30.07F WCI  19
LOS ALAMOS     FAIR      36  15  42 CALM      30.06F
SANTA FE       FAIR      24  15  68 N5        30.04F WCI  18
TAOS           FAIR      25   9  50 CALM      30.05S
ANGEL FIRE     FAIR      18   8  66 SW6       30.05F WCI   9

$$
NMZ402-403-502-505>509-050500-
WESTCENTRAL MOUNTAINS/SOUTHWEST MOUNTAINS

CITY           SKY/WX    TMP DP  RH WIND       PRES   REMARKS
GALLUP         FAIR      24  18  77 NE5       30.10F WCI  18
GRANTS         FAIR      26  16  66 W6        30.11F WCI  19
SILVER CITY    FAIR      31  28  88 N6        30.07S WCI  25

$$
NMZ407-409-411-412-050500-
SOUTHERN DESERTS

CITY           SKY/WX    TMP DP  RH WIND       PRES   REMARKS
DEMING         FAIR      36  29  75 NW6       30.07R WCI  31
LAS CRUCES     FAIR      37  24  58 W9        30.07S WCI  31
HOLLOMAN AFB   FAIR      39  27  63 SE7       30.09R WCI  34
T OR C         FAIR      35  17  47 W6        30.05R WCI  30

$$
NMZ519>523-050500-
CENTRAL VALLEYS/CENTRAL HIGHLANDS

CITY           SKY/WX    TMP DP  RH WIND       PRES   REMARKS
ALBUQUERQUE    FAIR      38  16  40 N7        30.06F WCI  33
DOUBLE EAGLE   CLEAR     25  12  58 CALM      30.07F
MORIARTY ARPT  FAIR      20  10  67 CALM      30.05F
CLINES CORNERS FAIR      26  12  55 NW14      30.03S WCI  14
BELEN          FAIR      32  19  60 NW3       30.06S
SOCORRO        FAIR      32  17  53 CALM      30.07R

$$
NMZ524>526-539-540-050500-
SOUTHCENTRAL MOUNTAINS

CITY           SKY/WX    TMP DP  RH WIND       PRES   REMARKS
RUIDOSO        FAIR      30  16  55 W9        30.07S WCI  22

$$
NMZ527>531-050500-
NORTHEAST HIGHLANDS/NORTHEAST PLAINS

CITY           SKY/WX    TMP DP  RH WIND       PRES   REMARKS
LAS VEGAS      FAIR      31  13  47 N5        29.95F WCI  26
RATON          FAIR      25  16  68 NW7       29.94F WCI  17
CLAYTON        FAIR      35  24  64 SW13      29.90F WCI  26

$$
NMZ532>537-050500-
EASTCENTRAL PLAINS

CITY           SKY/WX    TMP DP  RH WIND       PRES   REMARKS
TUCUMCARI      FAIR      30  23  75 SW6       29.96F WCI  24
CANNON AFB     FAIR      31  31 100 SW7       30.01S WCI  25
CLOVIS AIRPORT FAIR      30  23  74 SW10      30.01S WCI  21

$$
NMZ028-029-538-050500-
SOUTHEAST PLAINS

CITY           SKY/WX    TMP DP  RH WIND       PRES   REMARKS
ROSWELL        FAIR      33  29  85 SW8       30.04F WCI  26
ARTESIA        FAIR      36  36 100 W9        30.05F WCI  29
CARLSBAD       FAIR      35  34  96 SW5       30.05S WCI  31
HOBBS          FAIR      34  34 100 W6        30.06S FOG     WCI  29


$$



USA.gov is the U.S. government's official web portal to all federal, state and local government web resources and services.